Location: *
(49.3500°N, 12.6000°E)
Time: 14:50:19
(UTC+00:00)

Cosmos 967 Rocket - Pass Details

Date: 18 October 2019
Orbit: 944 x 993 km, 65.8° (Epoch: 17 November)

Event Time Altitude Azimuth Distance (km) Brightness Sun altitude
Rises 18:06:35 0° 322° (NW) 3,701 8.2 -19.0°
Reaches altitude 10° 18:09:10 10° 322° (NW) 2,755 7.5 -19.4°
Maximum altitude 18:15:39 88° 50° (NE) 1,000 4.5 -20.5°
Enters shadow 18:19:25 27° 142° (SE) 1,799 5.5 -21.1°
